De Queen, AR

8:28 PM CST on January 28, 2020 (GMT -0600)
Helms Sevier County

Weather History for KDEQ - October, 2019

Change the Weather History Date:

Sunday, October 6, 2019

  Actual Average Record
Temperature  
Mean Temperature 78 °F 66 °F  
Max Temperature 91 °F 79 °F 97 °F (1956)
Min Temperature 64 °F 53 °F 35 °F (1964)
Degree Days  
Heating Degree Days 0 2  
Month to date heating degree days 0 12  
Since 1 July heating degree days 0 21  
Cooling Degree Days 13 3  
Month to date cooling degree days 77 22  
Year to date cooling degree days 2294 1887  
Growing Degree Days 28 (Base 50)    
Moisture  
Dew Point 66 °F    
Average Humidity 85    
Maximum Humidity 100    
Minimum Humidity 42    
Precipitation  
Precipitation 0.22 in 0.15 in 1.67 in (1955)
Month to date precipitation 0.22 0.95  
Year to date precipitation 42.31 36.15  
Snow  
Snow 0.00 in - - ()
Month to date snowfall 0.0  
Since 1 July snowfall 0.0  
Since 1 September snowfall 0.0  
Snow Depth 0.00 in    
Sea Level Pressure  
Sea Level Pressure 29.95 in    
Wind  
Wind Speed 2 mph ()    
Max Wind Speed 21 mph    
Max Gust Speed 33 mph    
Visibility 4.0 miles    
Events Fog , Rain , Thunderstorm    
T = Trace of Precipitation, MM = Missing Value Source: Averaged Metar Reports

Daily Weather History Graph

Daily Weather History Graph

Search for Another Location

Airport or City:

Astronomy

Oct. 06, 2019 Rise Set
Actual Time 7:15 AM CDT 6:55 PM CDT
Civil Twilight 6:50 AM CDT 7:20 PM CDT
Nautical Twilight 6:21 AM CDT 7:49 PM CDT
Astronomical Twilight 5:52 AM CDT 8:18 PM CDT
Moon 3:15 PM CDT (10/6) 12:34 AM CDT (10/6)
Length of Visible Light 12h 29m
Length of Day
11h 39m
First Quarter, 60% of the Moon is Illuminated
Oct 6
First Quarter
Oct 13
Full
Oct 21
Last Quarter
Oct 27
New
Nov 4
First Quarter

Hourly Weather History & Observations

Time (CDT) Temp. Heat Index Dew Point Humidity Pressure Visibility Wind Dir Wind Speed Gust Speed Precip Events Conditions
12:53 AM 69.1 °F - 66.0 °F 90% 29.93 in 1.8 mi Calm Calm - N/A   Clear
1:08 AM 70.0 °F - 66.9 °F 90% 29.94 in 3.0 mi Calm Calm - N/A   Clear
1:33 AM 68.0 °F - 66.0 °F 93% 29.94 in 1.8 mi Calm Calm - N/A   Clear
1:53 AM 69.1 °F - 66.9 °F 93% 29.92 in 1.0 mi Calm Calm - N/A   Clear
2:03 AM 68.0 °F - 66.0 °F 93% 29.94 in 0.5 mi Calm Calm - N/A Fog Fog
2:17 AM 66.9 °F - 64.9 °F 93% 29.94 in 1.5 mi Calm Calm - N/A   Clear
2:25 AM 66.9 °F - 64.9 °F 93% 29.94 in 0.8 mi Calm Calm - N/A   Mist
2:53 AM 68.0 °F - 66.0 °F 93% 29.92 in 1.0 mi Calm Calm - N/A   Mist
2:55 AM 68.0 °F - 66.0 °F 93% 29.94 in 2.0 mi Calm Calm - N/A   Partly Cloudy
3:02 AM 66.9 °F - 64.9 °F 93% 29.94 in 3.0 mi Calm Calm - N/A   Partly Cloudy
3:09 AM 66.0 °F - 64.0 °F 93% 29.93 in 1.8 mi Calm Calm - N/A   Partly Cloudy
3:13 AM 66.9 °F - 64.9 °F 93% 29.93 in 0.8 mi Calm Calm - N/A   Mist
3:44 AM 66.9 °F - 64.9 °F 93% 29.93 in 0.5 mi Calm Calm - N/A Fog Fog
3:53 AM 66.0 °F - 64.0 °F 93% 29.92 in 0.5 mi Calm Calm - N/A Fog Fog
4:04 AM 66.0 °F - 64.9 °F 96% 29.93 in 1.0 mi Calm Calm - N/A   Clear
4:07 AM 66.0 °F - 64.0 °F 93% 29.93 in 0.8 mi Calm Calm - N/A   Mist
4:25 AM 66.9 °F - 64.9 °F 93% 29.94 in 1.5 mi Calm Calm - N/A   Partly Cloudy
4:27 AM 66.9 °F - 64.9 °F 93% 29.94 in 3.0 mi Calm Calm - N/A   Partly Cloudy
4:30 AM 66.0 °F - 64.9 °F 96% 29.94 in 1.2 mi Calm Calm - N/A   Partly Cloudy
4:32 AM 66.0 °F - 64.9 °F 96% 29.94 in 0.8 mi Calm Calm - N/A   Mist
4:53 AM 66.0 °F - 64.0 °F 93% 29.93 in 0.5 mi East 3.5 mph - N/A Fog Fog
4:57 AM 64.9 °F - 64.0 °F 97% 29.94 in 1.2 mi Calm Calm - N/A   Partly Cloudy
5:05 AM 64.9 °F - 64.0 °F 97% 29.94 in 2.0 mi Calm Calm - N/A   Clear
5:13 AM 66.0 °F - 64.0 °F 93% 29.94 in 1.0 mi Calm Calm - N/A   Clear
5:27 AM 66.0 °F - 64.0 °F 93% 29.95 in 0.8 mi Calm Calm - N/A   Clear
5:39 AM 66.0 °F - 64.0 °F 93% 29.95 in 2.0 mi Calm Calm - N/A   Clear
5:53 AM 64.9 °F - 64.0 °F 97% 29.94 in 2.5 mi Calm Calm - N/A   Clear
5:55 AM 64.9 °F - 64.0 °F 97% 29.95 in 1.0 mi Calm Calm - N/A   Mist
6:02 AM 66.0 °F - 64.0 °F 93% 29.96 in 0.5 mi ESE 3.5 mph - N/A Fog Fog
6:09 AM 64.9 °F - 64.0 °F 97% 29.96 in 1.0 mi Calm Calm - N/A   Clear
6:14 AM 64.9 °F - 63.0 °F 93% 29.96 in 1.0 mi Calm Calm - N/A   Mist
6:25 AM 66.0 °F - 64.0 °F 93% 29.97 in 1.0 mi Calm Calm - N/A   Clear
6:37 AM 66.0 °F - 64.0 °F 93% 29.97 in 3.0 mi East 3.5 mph - N/A   Clear
6:49 AM 64.4 °F - 62.6 °F 94% 29.97 in 2.5 mi NE 3.5 mph - N/A   Clear
6:53 AM 66.0 °F - 63.0 °F 90% 29.96 in 3.0 mi ENE 3.5 mph - N/A   Clear
7:21 AM 66.0 °F - 64.0 °F 93% 29.98 in 1.8 mi Calm Calm - N/A   Clear
7:33 AM 66.0 °F - 64.0 °F 93% 29.98 in 0.8 mi Calm Calm - N/A   Clear
7:43 AM 66.0 °F - 64.0 °F 93% 29.98 in 1.2 mi Calm Calm - N/A   Clear
7:53 AM 66.9 °F - 64.9 °F 93% 29.97 in 1.8 mi Calm Calm - N/A   Clear
8:12 AM 69.1 °F - 66.9 °F 93% 29.99 in 2.5 mi Calm Calm - N/A   Clear
8:19 AM 70.0 °F - 66.9 °F 90% 29.99 in 3.0 mi Calm Calm - N/A   Clear
8:53 AM 73.0 °F - 68.0 °F 84% 29.98 in 6.0 mi Calm Calm - N/A   Haze
9:53 AM 79.0 °F - 70.0 °F 74% 29.99 in 9.0 mi Calm Calm - N/A   Clear
10:53 AM 84.0 °F 88.4 °F 70.0 °F 63% 29.99 in 10.0 mi Variable 3.5 mph - N/A   Clear
11:53 AM 86.0 °F 91.5 °F 71.1 °F 61% 29.98 in 10.0 mi West 6.9 mph - N/A   Clear
12:53 PM 89.1 °F 94.1 °F 70.0 °F 53% 29.96 in 10.0 mi SW 9.2 mph - N/A   Clear
1:53 PM 91.0 °F 96.6 °F 70.0 °F 50% 29.94 in 10.0 mi SW 8.1 mph - N/A   Clear
2:53 PM 89.1 °F 93.7 °F 69.1 °F 52% 29.91 in 10.0 mi Variable 4.6 mph - N/A   Mostly Cloudy
3:53 PM 91.0 °F 95.2 °F 68.0 °F 47% 29.88 in 10.0 mi SSW 6.9 mph - N/A   Clear
4:53 PM 91.9 °F 94.5 °F 66.0 °F 42% 29.88 in 10.0 mi South 5.8 mph - N/A   Clear
5:53 PM 88.0 °F 90.7 °F 66.9 °F 49% 29.86 in 10.0 mi SSW 4.6 mph - N/A   Clear
6:53 PM 77.0 °F - 63.0 °F 62% 29.94 in 10.0 mi North 16.1 mph 29.9 mph 0.00 in Rain , Thunderstorm Light Rain
7:16 PM 75.0 °F - 64.0 °F 69% 29.96 in 10.0 mi North 9.2 mph 20.7 mph 0.00 in Rain , Thunderstorm Light Thunderstorms and Rain
7:53 PM 71.1 °F - 66.0 °F 84% 29.99 in 6.0 mi WNW 19.6 mph 33.4 mph 0.04 in Rain , Thunderstorm Thunderstorms and Rain
8:05 PM 72.0 °F - 64.9 °F 78% 29.97 in 2.0 mi SSW 13.8 mph 27.6 mph 0.14 in Rain , Thunderstorm Heavy Thunderstorms and Rain
8:12 PM 72.0 °F - 64.9 °F 78% 29.93 in 3.0 mi South 11.5 mph - 0.18 in Rain , Thunderstorm Heavy Thunderstorms and Rain
8:26 PM 73.0 °F - 66.9 °F 81% 29.95 in 10.0 mi South 11.5 mph - 0.18 in Rain , Thunderstorm Light Rain
8:33 PM 73.0 °F - 66.0 °F 79% 29.94 in 10.0 mi Variable 4.6 mph - 0.18 in   Mostly Cloudy
8:53 PM 70.0 °F - 66.9 °F 90% 29.96 in 9.0 mi North 3.5 mph - 0.18 in   Clear
9:53 PM 70.0 °F - 66.0 °F 87% 30.00 in 10.0 mi Variable 3.5 mph - N/A   Clear
10:53 PM 71.1 °F - 66.9 °F 87% 30.01 in 10.0 mi WSW 3.5 mph - N/A   Clear
11:53 PM 71.1 °F - 66.9 °F 87% 30.01 in 10.0 mi ENE 3.5 mph - N/A   Clear